Wetbulb
35.77 35.64 34.34 34.98 35.20 35.03 35.33 35.54 34.63 34.21 34.37 33.54 33.33 32.43 32.79 28.59 28.99 28.92 27.49 26.29 25.55 25.27 24.97 24.41 24.35 23.93 23.25 23.17 23.64 23.28 23.47 23.85
37.22 35.94 34.61 33.81 33.68 34.27 34.58 33.82 32.91 33.25 33.90 32.71 31.71 31.59 30.85 28.47 28.17 27.18 26.72 25.99 25.82 25.38 24.54 23.82 23.32 23.25 22.26 22.24 22.46 21.76 21.26 21.18
38.78 36.77 34.70 34.28 33.23 34.35 35.20 34.41 35.04 34.30 33.64 32.15 31.74 30.75 29.44 28.55 27.98 26.72 26.28 25.62 25.27 24.67 23.95 23.13 22.62 21.91 21.60 20.46 20.63 19.17 18.95 19.68
38.42 38.38 38.66 36.99 35.75 35.07 34.92 34.75 34.49 33.05 32.06 30.83 30.17 29.85 30.22 28.94 26.78 26.11 25.47 24.53 24.05 23.89 23.04 22.33 21.68 20.83 21.01 20.49 19.87 19.20 19.39 19.19
40.12 40.64 38.57 38.44 37.72 35.45 35.16 35.26 33.42 32.25 31.30 30.90 30.09 29.90 29.85 28.77 26.35 26.04 25.28 23.78 23.54 23.31 22.71 21.51 20.68 20.46 20.47 19.95 18.97 18.61 18.82 19.09
40.13 40.74 40.75 37.40 36.83 36.61 36.55 35.17 33.94 32.39 30.97 31.04 30.68 29.91 29.06 26.09 25.10 24.87 24.05 23.67 23.04 21.17 20.36 19.92 19.67 20.13 19.87 19.93 17.04 16.84 16.94 17.31
39.22 37.83 37.83 39.65 39.61 36.39 35.60 34.18 32.27 31.56 30.80 30.97 29.10 27.70 26.46 24.72 24.11 22.98 22.35 21.32 20.55 19.44 18.43 17.38 20.04 24.11 24.81 20.59 17.36 16.88 16.44 15.99
36.81 38.37 37.77 40.15 39.08 36.14 35.53 32.89 30.06 31.07 30.51 28.74 27.51 25.55 23.78 23.50 22.27 21.20 20.56 19.78 18.78 17.86 17.00 16.42 18.17 25.78 26.17 23.29 18.49 17.56 17.15 17.28
36.79 37.50 38.22 39.79 37.21 35.60 30.16 29.71 30.09 30.45 29.30 26.89 25.27 23.85 22.01 21.45 20.87 20.66 20.18 18.88 18.20 16.42 16.93 16.71 17.22 26.98 27.40 24.80 19.94 18.37 17.98 17.54
37.05 37.09 36.19 34.76 34.08 31.16 26.05 26.44 26.97 27.66 27.63 26.27 25.01 23.48 20.72 20.48 20.50 20.26 19.22 18.35 17.91 16.92 15.84 15.69 16.26 27.21 27.47 25.31 18.97 18.46 17.79 18.10
36.10 35.88 35.64 34.15 29.41 26.36 24.40 23.05 24.90 25.92 25.61 24.54 24.13 22.70 20.66 20.61 19.65 19.55 19.06 18.10 17.55 15.55 15.84 16.03 15.00 26.03 26.69 24.60 18.10 15.86 16.61 17.08
34.77 34.16 35.10 32.27 27.76 27.57 22.78 22.91 22.72 22.22 20.31 18.93 19.96 19.89 19.09 18.89 18.34 17.37 17.06 15.86 15.89 14.38 14.21 15.08 14.57 20.73 26.10 26.00 17.87 15.42 14.35 15.15
31.95 32.86 34.56 33.94 27.46 28.68 26.43 23.04 18.34 18.79 17.51 17.76 17.83 18.43 18.14 15.55 15.52 15.32 15.44 14.12 13.20 11.88 11.20 13.49 13.87 16.50 24.24 25.17 22.56 20.97 13.42 14.54
30.33 31.19 32.80 33.81 28.78 27.08 29.54 19.69 16.58 18.87 18.89 17.86 15.05 16.13 16.48 15.20 13.69 12.89 13.50 13.56 11.42 11.89 11.45 11.59 13.11 14.34 22.82 25.01 25.31 23.58 17.13 17.03
24.44 25.69 27.29 30.71 32.43 31.09 30.41 22.23 19.11 19.05 17.50 16.26 14.83 14.21 14.37 14.06 13.73 13.27 12.98 13.19 12.54 12.65 11.55 11.79 12.20 14.02 18.13 20.14 21.39 22.37 19.42 17.70
18.45 18.33 19.25 23.18 28.09 32.03 31.79 22.24 20.00 18.45 16.83 15.53 15.07 13.12 13.41 14.25 13.51 14.17 14.68 16.00 13.74 14.23 13.96 12.62 11.87 13.97 18.18 16.65 13.05 13.13 14.15 1.69
13.81 14.69 16.20 18.52 20.13 22.44 28.79 22.38 21.52 17.75 15.57 14.24 13.99 12.61 12.92 12.50 12.09 19.99 19.46 20.61 21.68 20.96 17.75 16.75 18.50 20.15 21.07 20.97 20.61 20.44 18.24 -2.75
10.68 10.99 11.14 11.45 12.75 15.65 19.10 23.22 21.55 19.93 17.72 14.75 13.68 11.77 11.67 10.90 10.18 9.78 16.97 20.79 22.70 22.46 21.13 19.79 20.40 22.38 22.97 23.55 23.19 20.84 11.06 -5.95
7.21 6.72 6.80 7.54 8.36 11.61 15.32 19.51 21.02 19.56 18.69 14.96 12.99 11.67 11.49 11.40 11.44 12.67 12.28 13.94 16.55 22.00 20.44 22.03 23.18 24.19 23.85 22.60 19.09 7.58 1.18 -8.54
2.70 2.79 3.69 5.09 6.89 11.15 14.80 18.70 21.37 18.48 17.00 13.83 12.23 11.55 11.52 11.87 12.62 13.37 14.26 15.29 15.50 16.51 19.84 22.13 24.44 23.69 22.38 17.34 3.36 -0.09 -4.04 -9.52
MSLP
1002.07 1003.15 1003.46 1003.78 1004.33 1004.89 1005.23 1005.61 1006.26 1007.61 1008.09 1008.52 1008.83 1009.44 1010.34 1011.11 1011.88 1013.04 1014.06 1014.84 1015.80 1016.72 1017.68 1018.47 1018.91 1019.29 1020.01 1020.52 1020.77 1020.71 1021.19 1022.05
1001.80 1002.20 1003.24 1004.02 1004.46 1004.53 1005.02 1005.40 1005.67 1006.11 1006.64 1007.42 1008.14 1008.48 1009.46 1010.21 1010.77 1011.77 1012.91 1014.01 1014.91 1015.57 1016.74 1017.80 1018.63 1019.14 1019.63 1020.10 1020.61 1020.28 1020.44 1021.78
1001.49 1002.16 1002.72 1003.35 1003.89 1003.58 1003.85 1004.34 1004.05 1004.48 1005.63 1006.17 1007.16 1007.88 1008.58 1009.18 1009.76 1010.89 1011.81 1012.92 1014.02 1014.99 1015.71 1016.64 1017.40 1018.35 1018.98 1019.46 1020.12 1019.95 1020.33 1021.03
1001.56 1001.45 1001.54 1001.90 1002.28 1002.57 1002.70 1002.75 1003.35 1004.13 1004.56 1005.44 1006.16 1007.08 1007.54 1008.01 1008.93 1010.01 1011.07 1012.12 1013.04 1014.15 1014.80 1015.73 1016.51 1017.54 1018.43 1018.96 1019.82 1019.64 1019.83 1020.29
1000.75 1000.52 1000.50 1000.77 1000.96 1001.31 1001.40 1001.58 1002.18 1003.03 1003.66 1003.97 1004.66 1005.20 1006.14 1006.76 1008.01 1009.02 1009.87 1011.02 1012.33 1013.45 1014.00 1015.10 1015.64 1016.66 1017.69 1018.46 1019.00 1019.18 1019.66 1020.12
1000.49 1000.01 999.76 999.92 999.83 1000.04 999.64 999.91 1000.47 1001.46 1002.27 1002.28 1002.85 1004.28 1005.99 1006.41 1007.12 1008.34 1009.27 1010.18 1011.40 1012.50 1013.58 1014.30 1014.99 1015.80 1016.61 1017.78 1018.04 1018.50 1019.42 1020.02
1000.50 1000.02 999.13 999.08 998.78 998.43 998.34 998.96 999.55 1000.38 1000.65 1001.24 1002.23 1003.14 1004.63 1005.34 1006.20 1007.59 1008.62 1009.78 1011.10 1012.06 1012.77 1013.57 1014.17 1014.96 1015.90 1016.73 1017.31 1018.09 1018.67 1019.37
1002.82 1001.77 1000.68 999.06 998.07 997.49 996.92 997.07 998.33 999.06 999.48 1000.33 1001.26 1002.67 1003.62 1004.47 1005.49 1006.49 1007.62 1008.92 1010.36 1011.66 1012.49 1013.05 1013.44 1014.23 1015.23 1015.99 1016.59 1017.33 1018.14 1019.14
1003.28 1002.08 1000.84 999.53 998.27 996.98 996.89 996.98 997.88 998.41 999.23 999.89 1000.98 1002.12 1002.97 1004.23 1005.00 1005.88 1006.64 1007.68 1009.35 1010.92 1011.61 1012.28 1012.72 1013.24 1013.95 1014.95 1015.81 1016.55 1017.41 1018.43
1003.48 1002.64 1001.35 1000.60 999.33 997.62 996.85 997.05 997.65 998.09 998.51 999.39 1000.21 1001.19 1002.12 1003.11 1004.18 1005.19 1006.28 1007.53 1008.40 1010.01 1011.37 1012.02 1012.98 1013.10 1013.62 1014.10 1015.26 1016.15 1017.24 1018.05
1003.15 1002.56 1002.03 1000.99 1000.28 999.44 998.76 998.14 997.83 997.88 998.62 999.55 1000.56 1001.16 1001.72 1003.06 1004.20 1004.89 1006.00 1007.20 1008.46 1009.28 1010.78 1011.59 1012.36 1012.29 1013.29 1013.88 1014.96 1015.90 1016.56 1016.94
1003.30 1003.05 1002.28 1001.59 1001.28 1000.07 999.80 999.48 999.10 998.73 999.20 999.77 1000.28 1001.28 1002.23 1003.26 1004.10 1005.09 1006.21 1007.13 1008.45 1009.21 1010.19 1010.91 1012.26 1012.01 1012.65 1013.34 1014.54 1015.12 1015.92 1016.15
1004.01 1003.04 1002.23 1001.54 1001.22 1001.08 1000.72 1000.33 999.32 999.04 999.67 1000.38 1001.00 1001.47 1002.32 1003.13 1003.85 1004.82 1006.14 1007.11 1008.04 1009.01 1010.33 1011.36 1011.83 1011.60 1012.15 1012.84 1013.80 1014.43 1014.97 1015.69
1004.56 1003.37 1002.54 1001.11 1001.68 1000.78 1000.76 1001.25 1000.61 999.84 1000.08 1000.72 1001.25 1002.29 1002.42 1003.02 1004.02 1004.91 1005.39 1006.31 1007.49 1008.36 1008.89 1010.17 1010.98 1011.19 1011.33 1011.89 1012.36 1012.97 1013.55 1014.43
1004.94 1003.65 1002.29 1001.11 1001.23 1000.64 1000.43 1000.38 1000.77 1000.70 1000.33 1000.05 1001.19 1002.18 1002.31 1002.75 1003.75 1004.20 1004.82 1005.41 1005.94 1007.08 1008.43 1009.05 1009.49 1009.98 1010.64 1011.38 1012.04 1012.79 1013.44 1014.10
1005.77 1004.83 1003.14 1002.27 1001.13 1000.01 999.62 1000.11 1000.22 1000.28 1000.09 999.95 1000.83 1000.78 1001.66 1001.87 1001.98 1002.70 1003.03 1003.21 1003.52 1004.76 1005.99 1007.46 1008.71 1008.75 1009.44 1010.53 1012.02 1013.27 1013.91 1015.16
1006.58 1004.89 1003.06 1002.20 1001.76 1000.78 1000.32 999.80 999.72 999.56 1000.01 999.81 999.59 1000.54 1001.22 1001.50 1001.89 1002.26 1003.16 1003.56 1004.03 1004.71 1004.76 1006.21 1007.58 1008.68 1009.62 1010.28 1011.10 1012.66 1014.39 1015.71
1005.64 1004.56 1003.84 1002.92 1001.65 1000.60 1000.28 999.46 998.60 998.50 998.69 998.91 999.16 1000.07 1000.30 1000.24 1000.33 1001.98 1003.27 1002.89 1002.58 1003.65 1004.77 1005.79 1006.86 1008.04 1009.17 1009.19 1010.18 1011.90 1014.40 1015.88
1005.35 1004.28 1003.85 1002.30 1000.35 1000.41 999.71 998.92 997.68 997.59 997.51 997.97 997.96 998.67 999.24 999.93 1000.13 1000.06 1000.96 1002.54 1002.69 1003.35 1003.53 1004.40 1006.34 1007.64 1008.48 1009.61 1010.29 1012.50 1014.21 1015.54
1005.16 1003.58 1002.79 1001.35 999.08 999.39 998.74 997.52 996.01 996.21 996.35 996.47 997.32 998.16 998.62 998.79 999.43 1000.05 1000.78 1002.05 1001.28 1002.64 1003.44 1003.64 1005.52 1007.29 1008.32 1010.10 1011.37 1013.08 1014.13 1015.20
Wind_Speed
5 7 6 7 10 11 14 18 13 13 14 13 15 14 12 9 13 11 9 10 12 13 12 10 9 9 8 5 6 7 5 4
7 7 6 6 8 11 12 12 12 15 16 15 14 14 12 12 12 13 13 14 15 15 14 13 11 9 8 7 7 7 8 5
8 7 7 9 9 15 15 16 19 16 15 16 14 14 14 14 14 14 15 14 15 15 15 14 12 10 10 10 8 9 8 8
7 9 12 13 13 15 15 19 14 11 14 13 14 15 18 16 15 15 15 14 14 16 16 15 13 12 9 9 9 8 8 9
9 10 9 11 14 13 15 16 13 14 15 17 17 19 17 15 15 16 16 16 15 15 15 14 13 12 12 11 10 9 8 9
13 12 12 11 14 15 16 15 17 17 17 20 17 14 13 14 15 15 15 15 16 15 13 13 12 11 13 12 11 10 9 7
13 12 11 12 15 13 14 13 14 16 19 16 13 15 16 15 16 15 14 14 14 14 15 15 10 21 23 15 11 10 9 8
20 22 18 17 17 15 15 11 15 17 14 14 15 16 16 16 16 17 17 15 14 14 14 14 12 24 24 21 11 10 8 8
18 20 22 22 15 12 4 9 11 12 12 12 15 14 14 15 16 16 16 17 16 14 14 13 11 26 27 25 11 9 10 8
15 18 18 18 18 10 4 7 8 11 14 14 16 16 16 17 17 15 14 14 15 13 13 13 11 25 25 20 11 10 9 9
14 16 19 20 14 8 7 1 8 6 5 7 9 12 15 14 14 12 12 12 10 12 11 12 12 25 24 18 8 9 8 7
17 15 16 15 15 13 7 6 2 4 5 6 9 10 11 11 10 11 11 11 11 11 10 12 12 13 23 23 9 8 7 6
18 19 16 14 8 15 14 7 2 5 6 6 7 8 9 12 11 12 12 12 11 11 9 7 9 11 21 22 18 16 7 7
15 18 17 12 6 9 14 6 3 4 7 7 7 6 10 12 11 10 12 11 11 10 11 10 9 9 22 24 22 21 10 7
19 19 22 16 16 11 13 7 6 7 7 9 10 10 11 9 9 9 11 11 12 12 10 10 10 10 10 10 11 14 9 9
17 18 22 20 20 15 12 7 9 8 8 9 7 13 11 10 12 13 14 17 17 14 13 15 12 13 18 14 6 3 8 7
18 19 19 18 20 20 17 9 11 10 8 8 9 10 8 8 7 20 17 22 23 22 16 10 12 23 26 24 20 17 15 3
18 20 20 20 22 19 18 12 12 12 10 8 9 8 10 11 12 10 13 23 25 22 21 21 21 31 27 25 23 18 10 3
21 23 20 20 25 16 17 18 16 14 15 10 10 11 11 10 10 10 14 14 11 21 21 27 31 27 24 23 18 8 4 3
22 23 20 21 25 15 16 18 15 12 10 10 8 9 10 10 11 11 12 11 13 14 20 25 29 26 25 21 7 6 4 3
Wind_Direction
195 212 203 192 192 197 197 203 187 197 201 201 202 197 197 172 179 178 167 158 164 167 167 169 168 164 165 167 170 150 138 136
222 210 200 186 192 201 207 199 194 195 196 194 201 194 191 183 178 174 165 168 173 170 165 169 172 171 166 169 175 152 133 128
225 212 203 215 209 209 208 206 210 200 197 202 196 191 188 191 182 169 171 171 170 168 168 170 170 171 173 169 174 155 152 154
241 221 220 219 213 214 208 217 213 199 196 196 196 195 202 193 178 171 167 169 167 172 172 170 170 170 174 169 173 165 160 161
275 249 230 224 219 218 223 218 203 196 200 201 199 201 200 187 178 175 173 169 173 176 169 171 166 168 171 173 172 162 165 171
271 258 247 225 223 225 225 206 198 202 204 208 201 194 193 181 174 172 172 174 173 166 170 167 167 171 175 180 169 160 160 174
290 272 260 252 242 225 226 217 194 202 210 204 188 179 185 177 172 169 169 167 169 175 170 168 174 184 186 171 160 164 172 183
339 336 291 265 253 239 225 196 190 205 203 189 179 182 180 173 169 173 174 165 173 172 169 172 174 186 185 175 163 163 173 189
328 328 327 311 277 263 236 188 197 202 191 179 182 182 169 173 178 175 170 172 173 176 177 173 178 185 183 176 165 162 174 190
323 325 322 323 318 289 197 175 178 193 193 189 182 178 172 179 181 174 168 175 175 173 172 171 180 187 184 174 161 164 182 200
331 331 328 330 327 316 317 247 211 196 185 165 177 176 177 177 176 172 173 170 171 162 171 170 175 188 187 173 161 172 176 196
330 320 317 324 326 327 315 284 329 112 122 146 162 167 166 164 165 160 163 157 170 160 159 160 174 190 188 184 178 171 181 183
316 311 312 320 337 318 310 294 171 122 127 148 155 154 159 157 155 157 161 162 162 156 152 166 173 180 189 195 184 185 170 190
309 304 304 315 296 292 289 271 290 154 157 160 139 163 162 162 160 162 166 169 171 175 167 171 174 180 192 194 191 189 167 174
314 310 309 316 307 275 284 220 209 220 189 157 164 174 169 162 170 177 181 183 176 176 182 173 169 172 184 186 184 190 162 155
309 301 297 304 302 301 291 210 222 217 200 176 197 180 184 193 184 191 197 192 179 182 171 169 182 185 177 163 142 136 137 104
288 290 296 303 298 298 305 214 225 214 208 206 186 185 194 191 189 211 207 210 205 189 175 170 178 173 171 164 163 173 149 60
292 292 293 290 284 284 288 262 232 232 218 200 191 197 190 185 176 177 211 201 195 189 176 164 161 163 169 166 161 139 129 101
294 288 286 284 277 286 281 275 244 231 219 204 196 187 184 189 187 174 171 182 183 181 166 159 160 166 158 150 138 127 113 119
283 284 284 279 278 284 275 277 258 227 220 198 190 189 185 176 175 176 175 178 155 151 156 156 156 159 146 135 133 152 149 135